Wind_Speed
41 38 39 39 39 42 45 45 49 52 53 52 55 61 64 69 69 66 60 54 52 49 49 46 42 40 36 35 31 30 28 27 27 23 22 22 19 14 14 17 11 13 18 16 19
41 37 35 33 37 41 45 49 55 55 56 57 62 63 67 71 74 69 61 59 54 53 52 48 42 40 39 37 34 31 27 27 30 24 23 21 19 14 12 14 20 12 12 18 19
38 34 30 35 40 42 46 49 49 53 58 64 61 64 71 74 74 69 67 61 57 55 53 51 45 45 41 40 35 32 26 29 30 29 24 22 20 14 11 11 20 14 13 13 19
39 30 30 37 39 41 44 44 47 54 50 49 51 59 62 70 71 76 69 63 59 58 56 52 50 48 41 38 34 32 30 29 29 30 23 23 20 17 11 14 21 20 17 16 15
27 28 34 34 39 41 39 40 48 43 37 47 51 44 52 65 67 72 70 65 64 60 59 55 53 46 40 36 36 33 31 32 31 29 24 21 22 20 11 13 21 27 21 17 16
30 34 33 34 38 36 36 40 40 31 32 41 43 43 46 56 60 71 72 68 67 61 59 56 52 42 41 40 39 35 35 34 29 27 26 24 20 17 11 20 19 18 18 12 13
35 31 32 33 35 34 34 38 35 32 35 38 42 42 45 43 62 68 72 68 68 63 58 52 48 47 44 40 37 39 36 32 26 26 29 26 17 20 21 18 14 15 16 15 15
31 34 31 35 33 34 33 34 28 27 34 34 38 37 36 49 59 66 70 69 67 64 57 53 51 49 45 44 39 38 35 30 27 32 28 24 13 24 21 16 18 17 17 17 16
31 30 34 36 33 28 30 28 25 24 29 26 32 33 41 41 53 61 67 69 69 63 59 55 55 52 49 45 42 40 32 29 30 32 26 24 15 19 18 18 19 19 19 18 19
29 32 38 37 28 21 22 23 24 22 24 22 27 33 35 37 48 59 66 70 68 64 61 57 55 55 52 47 45 30 30 30 31 31 27 22 19 20 17 17 19 18 19 17 17
30 34 42 37 30 24 15 22 22 22 22 16 22 26 28 37 48 58 65 68 67 65 63 56 57 60 49 36 32 34 37 32 32 33 26 23 21 20 17 14 17 17 16 17 20
30 32 39 38 31 22 14 17 20 18 19 11 19 25 24 28 47 58 66 67 66 64 63 58 56 44 40 40 39 37 35 30 31 30 25 22 19 20 18 16 17 18 19 21 22
33 31 39 29 32 19 17 15 18 17 13 6 15 21 26 26 47 56 64 68 65 64 63 58 52 44 40 41 38 32 31 30 29 29 23 24 20 21 20 20 20 18 18 18 18
32 34 31 30 30 19 16 11 16 18 15 13 8 17 28 27 48 56 61 63 62 60 58 55 37 43 43 40 35 29 28 30 30 28 23 24 21 19 20 22 22 20 19 19 16
32 28 27 30 27 19 16 15 16 13 15 11 12 20 29 31 47 55 61 60 58 57 59 58 52 41 41 36 29 23 29 27 29 26 25 19 21 14 20 24 24 23 20 19 18
28 25 25 29 20 15 17 18 17 13 15 4 14 22 31 37 48 53 63 60 56 58 56 55 53 36 32 31 28 27 28 26 27 28 28 20 22 11 21 23 21 20 21 20 20
23 22 20 27 32 19 11 11 19 19 11 12 10 24 31 39 51 55 62 59 52 59 57 52 47 44 37 32 31 37 27 24 24 24 18 22 25 13 19 21 20 20 21 21 23
18 21 20 20 26 18 10 13 14 10 10 8 5 25 33 47 52 55 61 56 49 53 51 51 51 46 43 34 33 30 26 21 21 20 22 21 22 16 19 23 23 23 23 25 26
13 19 19 18 24 21 14 7 4 7 3 4 6 27 40 48 48 55 59 59 51 50 52 50 44 41 36 34 28 34 31 25 24 23 22 22 20 19 19 22 24 24 26 29 29
9 17 20 17 19 28 14 2 2 4 3 5 4 28 42 51 48 52 55 54 50 47 45 45 43 41 38 36 40 36 31 30 29 27 23 21 20 19 20 22 23 25 27 28 27
6 17 19 14 15 22 21 7 2 7 7 6 13 26 43 52 54 56 55 52 49 45 44 40 39 40 37 36 36 35 34 31 30 30 27 22 22 20 20 22 24 23 23 25 24
3 14 12 8 12 17 22 12 5 7 8 4 9 18 29 39 48 48 51 44 35 37 37 37 36 34 37 38 38 39 37 33 32 32 27 24 20 20 19 22 24 23 24 25 26
4 12 7 5 7 9 14 10 9 10 5 9 10 24 28 34 37 38 34 33 30 34 33 33 37 38 37 37 39 37 33 33 31 29 27 25 19 21 23 23 23 23 26 27 29
5 9 6 0 2 5 9 11 3 4 11 15 17 27 34 32 30 30 32 30 27 25 28 32 33 35 33 29 26 31 27 27 28 30 25 24 20 22 26 24 23 26 27 28 29
8 8 9 5 1 2 5 7 6 4 12 20 20 18 22 24 32 28 34 30 29 25 25 27 29 32 26 26 29 29 29 29 30 26 29 21 26 29 27 22 26 26 26 30 32
10 7 11 7 3 3 3 3 3 7 11 16 17 17 22 23 25 19 30 26 22 27 27 23 25 25 26 26 26 27 29 30 29 28 27 24 25 27 26 25 26 26 28 32 32
14 9 13 11 6 5 5 5 6 13 14 16 18 21 24 24 28 26 24 22 19 23 25 24 23 27 28 28 27 30 28 27 26 26 26 26 24 26 26 26 25 27 32 34 34
Wind_Direction
290 283 292 291 295 297 292 283 278 274 268 263 255 248 246 239 232 232 230 228 227 221 225 225 225 229 228 227 221 223 219 224 231 240 243 246 250 265 270 252 223 253 257 252 250
285 287 290 291 299 295 287 282 278 275 270 263 257 247 242 239 229 227 227 223 223 219 222 224 223 226 227 227 222 220 218 223 231 237 241 245 251 264 275 260 237 254 253 262 261
289 287 283 295 298 295 291 285 278 274 268 268 264 249 241 233 230 222 223 220 219 219 219 222 221 223 224 224 221 218 217 226 229 233 237 245 250 260 272 261 222 233 250 252 256
299 290 293 297 300 300 294 284 281 276 271 266 263 254 242 229 226 219 219 217 216 217 215 220 221 222 222 226 225 219 221 228 231 231 234 244 253 263 255 242 234 231 249 250 254
301 297 297 300 308 306 297 290 289 280 274 268 258 245 232 227 221 219 214 215 213 214 213 217 220 221 221 222 224 219 221 224 227 232 232 241 250 255 253 233 238 232 248 256 256
308 303 301 305 313 307 299 296 295 273 282 275 255 248 234 224 214 217 211 211 211 212 213 215 220 218 219 219 221 218 221 222 225 237 234 235 246 254 246 239 241 238 250 258 244
314 310 305 306 318 310 303 304 298 277 284 271 254 244 230 219 213 213 207 207 210 208 211 213 217 218 218 219 217 218 218 218 221 233 238 232 239 252 230 249 238 239 242 242 240
316 315 314 311 322 317 305 306 293 287 286 272 250 238 219 215 212 208 204 203 207 205 209 211 213 217 217 219 218 219 216 214 223 227 237 231 223 242 255 246 238 238 243 250 254
324 325 321 319 325 324 308 300 289 287 286 273 243 237 210 211 207 205 202 200 204 202 206 210 212 214 217 218 218 217 211 210 221 229 234 232 230 247 248 242 242 245 245 249 268
328 331 333 316 329 337 321 304 285 288 290 265 232 232 212 207 201 201 197 198 199 200 203 207 214 214 217 216 219 217 213 214 219 233 231 233 230 240 245 246 243 246 249 250 254
331 336 336 322 313 324 331 300 297 287 294 269 228 221 205 203 197 197 194 196 197 198 202 204 214 215 218 220 223 216 215 215 218 230 230 226 227 233 235 232 235 239 247 258 266
325 335 334 330 316 331 337 309 300 300 281 265 217 209 202 202 191 194 191 193 196 197 200 206 213 211 213 213 218 216 214 218 225 231 228 224 223 240 229 225 233 251 263 272 278
325 327 334 342 328 325 344 308 303 297 270 306 204 204 190 188 188 191 189 190 194 195 200 205 209 208 209 215 218 213 213 222 228 232 229 225 215 230 236 236 244 256 266 268 274
325 332 339 351 337 305 332 328 286 284 264 284 210 197 181 183 185 186 185 190 192 193 198 203 205 207 207 212 214 205 215 221 227 233 229 229 215 227 231 242 249 254 265 274 271
327 330 344 358 332 310 325 339 284 285 272 291 198 190 176 179 182 182 183 188 189 194 197 200 200 200 201 209 208 199 219 222 224 231 227 231 234 209 237 238 243 249 260 264 264
328 335 342 352 346 327 313 318 346 322 297 313 193 186 180 176 178 182 181 185 189 192 198 203 205 206 204 205 197 213 224 222 223 231 229 234 246 220 238 242 249 253 256 261 262
328 328 344 349 351 307 325 345 345 354 333 3 159 174 177 176 175 180 181 183 190 193 196 197 201 205 205 198 199 212 207 218 227 232 234 233 241 234 246 245 252 256 263 269 272
329 320 334 348 350 314 335 9 7 15 8 326 148 169 172 172 174 175 183 183 191 195 202 199 196 196 200 198 207 208 212 229 235 240 242 241 241 245 255 253 257 260 265 267 269
335 320 330 336 353 333 343 34 33 38 90 130 146 167 169 171 176 180 183 186 192 195 201 202 204 201 200 208 203 220 225 233 242 244 241 239 245 251 257 258 259 262 265 267 272
331 325 328 342 352 348 337 209 107 263 96 100 121 168 166 162 169 176 181 186 195 196 200 203 204 205 208 210 217 219 222 232 241 249 251 244 249 256 259 259 260 261 264 270 272
322 320 329 345 0 341 335 13 199 158 153 94 114 157 166 166 172 178 181 188 195 197 202 201 205 210 209 217 224 226 233 238 243 247 246 249 256 258 257 257 256 258 260 264 269
304 318 319 358 16 0 354 334 233 221 129 116 173 173 179 183 178 183 187 191 193 199 206 207 208 214 222 226 227 230 235 235 241 245 250 251 248 256 248 246 251 256 261 265 270
243 307 295 354 5 354 351 17 73 136 128 167 148 181 178 165 165 173 180 178 190 197 201 205 207 212 216 222 227 232 233 235 234 239 243 247 253 247 244 246 252 258 264 270 277
215 295 265 187 330 13 6 337 67 113 183 163 156 150 151 154 169 186 170 178 185 194 192 200 207 213 223 233 236 229 226 232 237 237 244 249 244 242 245 248 259 264 272 277 279
201 262 251 169 330 54 51 5 87 121 165 166 156 161 172 183 183 187 191 193 200 194 200 210 212 209 207 210 212 213 222 232 235 242 245 235 239 247 250 258 262 270 273 274 276
192 223 232 192 211 149 134 27 119 137 141 167 181 181 173 189 183 193 187 194 199 202 196 204 203 208 212 217 220 224 223 228 232 235 240 238 244 255 262 264 271 272 272 277 280
193 197 219 203 208 244 165 117 117 144 129 159 155 164 167 186 189 190 192 201 205 203 209 221 219 216 219 219 216 224 224 228 232 235 241 245 252 259 270 273 272 274 274 278 284
Height
5720 5717 5714 5710 5706 5702 5699 5697 5696 5695 5693 5695 5698 5700 5704 5711 5719 5728 5739 5754 5759 5766 5769 5774 5781 5786 5791 5796 5800 5805 5808 5812 5813 5815 5818 5820 5822 5824 5825 5826 5830 5833 5834 5837 5839
5709 5707 5704 5700 5695 5691 5687 5683 5681 5679 5677 5676 5678 5683 5684 5692 5703 5714 5733 5739 5749 5756 5762 5769 5776 5779 5786 5790 5793 5800 5805 5807 5809 5812 5814 5817 5820 5821 5823 5825 5828 5830 5833 5834 5836
5699 5697 5693 5688 5684 5678 5674 5669 5666 5663 5659 5656 5656 5660 5663 5672 5684 5707 5713 5726 5737 5745 5754 5760 5766 5770 5778 5783 5789 5798 5803 5802 5805 5808 5811 5814 5815 5817 5819 5822 5824 5828 5830 5831 5833
5691 5687 5683 5678 5672 5665 5659 5654 5651 5645 5640 5638 5637 5638 5642 5651 5668 5683 5699 5715 5725 5733 5743 5751 5757 5764 5774 5780 5786 5794 5798 5799 5802 5805 5808 5809 5812 5813 5815 5818 5821 5824 5826 5828 5829
5681 5678 5673 5667 5661 5653 5646 5641 5635 5628 5625 5623 5621 5622 5624 5634 5659 5672 5687 5703 5712 5723 5734 5742 5750 5759 5770 5777 5781 5787 5792 5794 5798 5800 5804 5805 5808 5809 5813 5814 5814 5819 5823 5824 5825
5675 5670 5664 5658 5650 5642 5635 5627 5620 5616 5613 5610 5607 5609 5611 5625 5650 5653 5672 5689 5700 5714 5727 5736 5746 5758 5764 5768 5774 5782 5785 5791 5794 5796 5799 5802 5805 5806 5810 5808 5811 5816 5820 5820 5821
5668 5661 5655 5649 5640 5632 5624 5617 5609 5605 5603 5597 5595 5596 5605 5629 5627 5640 5660 5678 5691 5708 5720 5732 5741 5748 5757 5763 5769 5774 5781 5786 5791 5793 5794 5797 5804 5804 5803 5804 5810 5813 5815 5816 5817
5661 5654 5647 5641 5632 5623 5615 5607 5601 5596 5592 5586 5584 5588 5600 5608 5612 5631 5650 5667 5683 5700 5715 5724 5733 5740 5749 5756 5763 5768 5775 5782 5787 5787 5789 5793 5798 5797 5800 5803 5806 5809 5811 5812 5814
5655 5648 5641 5632 5624 5616 5608 5601 5595 5590 5584 5579 5577 5582 5588 5596 5612 5626 5642 5659 5674 5691 5706 5715 5722 5730 5740 5750 5757 5761 5773 5779 5781 5782 5786 5789 5794 5795 5796 5799 5802 5805 5807 5808 5809
5650 5643 5634 5625 5618 5610 5601 5596 5589 5584 5579 5574 5572 5575 5585 5594 5602 5618 5634 5649 5667 5684 5696 5705 5713 5723 5733 5744 5750 5765 5771 5775 5777 5779 5781 5786 5789 5790 5793 5795 5798 5800 5802 5804 5804
5644 5637 5628 5619 5612 5603 5595 5589 5585 5580 5575 5570 5570 5573 5580 5588 5597 5613 5629 5644 5660 5676 5688 5699 5706 5715 5733 5749 5755 5759 5762 5769 5771 5772 5778 5780 5784 5786 5788 5792 5795 5797 5798 5799 5799
5641 5632 5624 5614 5607 5599 5590 5585 5580 5577 5572 5566 5566 5571 5575 5582 5593 5608 5622 5641 5658 5674 5684 5695 5702 5722 5733 5739 5746 5751 5759 5765 5767 5769 5775 5777 5782 5782 5786 5788 5790 5792 5793 5794 5793
5637 5629 5621 5611 5604 5596 5588 5582 5577 5573 5570 5567 5566 5570 5574 5582 5594 5609 5625 5640 5655 5669 5683 5693 5705 5716 5724 5734 5742 5750 5757 5761 5763 5765 5771 5772 5777 5779 5782 5785 5786 5788 5789 5788 5788
5634 5626 5619 5608 5601 5594 5588 5580 5576 5572 5569 5569 5568 5571 5577 5581 5594 5607 5624 5641 5655 5670 5682 5693 5703 5714 5721 5731 5739 5748 5753 5753 5758 5762 5766 5769 5774 5775 5778 5780 5781 5783 5783 5783 5783
5629 5624 5617 5607 5600 5593 5588 5581 5576 5573 5569 5567 5567 5569 5576 5587 5599 5610 5624 5640 5655 5669 5676 5687 5700 5708 5716 5730 5738 5746 5744 5749 5754 5758 5762 5766 5767 5774 5773 5775 5776 5778 5779 5778 5778
5625 5621 5616 5609 5601 5595 5588 5583 5578 5575 5569 5566 5566 5571 5579 5588 5599 5611 5625 5640 5654 5664 5676 5686 5698 5704 5717 5727 5735 5737 5740 5744 5749 5753 5759 5764 5763 5770 5769 5771 5773 5774 5773 5773 5773
5623 5620 5615 5608 5602 5593 5589 5585 5582 5574 5572 5570 5569 5572 5582 5592 5601 5614 5627 5639 5649 5658 5668 5682 5696 5705 5716 5722 5727 5730 5736 5742 5747 5751 5757 5758 5759 5765 5765 5767 5768 5768 5768 5768 5768
5621 5618 5613 5609 5601 5595 5589 5586 5583 5579 5575 5575 5575 5577 5585 5593 5604 5615 5627 5640 5650 5663 5675 5679 5686 5697 5707 5717 5723 5729 5735 5740 5743 5747 5751 5754 5757 5761 5761 5762 5762 5763 5763 5762 5762
5620 5617 5612 5608 5602 5598 5591 5588 5587 5585 5584 5582 5580 5582 5587 5598 5609 5618 5631 5642 5650 5659 5670 5679 5691 5701 5709 5717 5722 5725 5730 5736 5738 5741 5746 5750 5754 5757 5756 5756 5756 5756 5756 5755 5756
5618 5616 5612 5608 5604 5600 5594 5589 5590 5591 5590 5588 5587 5588 5593 5599 5612 5620 5630 5641 5650 5661 5669 5680 5690 5698 5706 5711 5715 5720 5727 5730 5732 5737 5742 5746 5749 5751 5751 5750 5750 5750 5750 5750 5750
5616 5616 5613 5609 5604 5601 5596 5593 5592 5594 5594 5594 5594 5597 5602 5605 5614 5623 5631 5641 5651 5660 5668 5678 5687 5695 5702 5706 5710 5716 5721 5726 5730 5733 5736 5741 5744 5745 5744 5744 5744 5744 5744 5745 5745
5615 5615 5613 5610 5608 5603 5599 5595 5595 5597 5597 5599 5603 5607 5612 5615 5619 5627 5636 5645 5654 5663 5670 5677 5684 5690 5698 5703 5707 5712 5717 5721 5724 5730 5732 5735 5741 5739 5738 5738 5738 5739 5740 5741 5740
5613 5614 5612 5610 5609 5607 5604 5601 5599 5600 5601 5602 5603 5605 5611 5619 5627 5634 5639 5648 5656 5662 5669 5676 5681 5686 5691 5697 5702 5707 5712 5715 5719 5724 5727 5730 5735 5733 5733 5734 5735 5736 5736 5735 5735
5612 5613 5612 5610 5610 5609 5606 5604 5604 5603 5604 5606 5608 5609 5615 5622 5629 5636 5642 5648 5655 5662 5667 5671 5677 5683 5689 5696 5701 5704 5710 5714 5716 5717 5723 5724 5727 5727 5727 5729 5731 5731 5731 5730 5728
5609 5610 5612 5611 5610 5610 5608 5606 5606 5607 5606 5609 5612 5617 5622 5626 5632 5637 5643 5650 5655 5660 5665 5670 5674 5679 5685 5690 5693 5699 5704 5707 5709 5714 5714 5721 5719 5718 5722 5725 5724 5725 5725 5724 5722
5607 5608 5610 5610 5610 5610 5609 5608 5608 5609 5610 5612 5616 5619 5623 5629 5636 5642 5646 5652 5657 5661 5665 5670 5674 5679 5683 5687 5691 5695 5698 5700 5704 5707 5709 5713 5715 5715 5717 5718 5719 5718 5717 5716 5714
5603 5605 5609 5610 5609 5610 5610 5610 5610 5611 5613 5615 5617 5622 5627 5630 5635 5640 5645 5651 5657 5661 5666 5670 5673 5677 5681 5684 5686 5689 5695 5697 5700 5702 5705 5707 5711 5711 5711 5711 5711 5710 5709 5709 5707